Powrót do katalogu

DELTA 1 DEB

AktywnyPO
NORAD 26826·DEBRIS·🇺🇸 United States

Wystrzelony Jun 12, 1975 z Vandenberg Space Force Base

Loading…

Następne Przeloty (najbliższe 24 godziny)

TLE

ŚwieżeSource: Space-Track

Epoka: Sep 14, 2026, 07:42 UTC

1 26826U 75052KE  26257.32127318  .00000432  00000-0  12970-2 0  9992
2 26826  99.6375 194.1671 0299016 300.0701 215.6555 12.98730641657156

Śledź DELTA 1 DEB w czasie rzeczywistym z AllMySat

Download on the App Store